Miscellaneous Local Product
Issued by NWS North Platte, NE

Home | Current Version | Previous Version | Graphics & Text | Print | Product List | Glossary On
Versions: 1 2 3 4 5 6 7 8 9 10 11 12 13 14 15 16 17 18 19 20 21 22 23 24 25 26 27 28 29 30 31 32 33 34 35 36 37 38 39 40 41 42 43 44 45 46 47 48 49 50
000
AXUS43 KLBF 231610
MISLBF


WESTERN AND NORTH CENTRAL NEBRASKA HOURLY WEATHER ROUNDUP
NATIONAL WEATHER SERVICE NORTH PLATTE NE
1000 AM CST MON JAN 23 2017

NOTE: "FAIR" INDICATES FEW OR NO CLOUDS BELOW 12,000 FEET WITH NO
SIGNIFICANT WEATHER AND/OR OBSTRUCTIONS TO VISIBILITY.

NOTE: STATIONS NOT REPORTING VARIABLES SUCH AS SKY/WEATHER OR
PRESSURE ARE PROVIDED BY RAWS AND APRS NETWORKS AND ARE NOT UNDER
NATIONAL WEATHER SERVICE QUALITY CONTROL.

...OBSERVATIONS IN AND NEAR THE EASTERN PANHANDLE OF NEBRASKA...

CITY           SKY/WX    TMP DP  RH WIND       PRES   REMARKS
PINE RIDGE     CLOUDY    34  32  92 CALM      29.65F
CHADRON        CLOUDY    33  26  75 CALM      29.64F
ALLIANCE       CLOUDY    31  26  82 CALM      29.64R
SIDNEY         MOSUNNY   33  24  69 SW6       29.64R WCI  28
CRESCENT LAKE    N/A     35  28  75 S3          N/A
$$

...OBSERVATIONS IN NORTHERN NEBRASKA AND FAR SOUTHERN SOUTH DAKOTA...

CITY           SKY/WX    TMP DP  RH WIND       PRES   REMARKS
WINNER         CLOUDY    27  25  92 SE12      29.80S WCI  17
VALENTINE      CLOUDY    24  20  84 NE6       29.75S WCI  17
THEDFORD       CLOUDY    33  29  87 SE5       29.74F WCI  28
AINSWORTH      CLOUDY    30  29  98 SE8       29.76F WCI  22
O`NEILL        CLOUDY   N/A N/A N/A S3        29.83S FOG
ORD            CLOUDY    27  24  89 SE6       29.82R FOG     WCI  20
BROKEN BOW     CLOUDY    31  28  89 SE7       29.78S WCI  24
VALENTINE NWR    N/A     30  26  84 S9          N/A  WCI  22
BUTTE            N/A     26  25  95 SE7         N/A  WCI  18
HALSEY           N/A     29  26  86 CALM        N/A
SARGENT          N/A     29  20  70 SE5         N/A  WCI  24
CHAMBERS         N/A     27  25  93 S3          N/A
EWING            N/A     27  26  96 SW3         N/A
$$

...OBSERVATIONS IN SOUTHWEST NEBRASKA AND FAR NORTHEAST COLORADO...

CITY           SKY/WX    TMP DP  RH WIND       PRES   REMARKS
WRAY           FAIR      36  28  75 SW8       29.65S WCI  29
HOLYOKE        FAIR      34  28  80 S3        29.65S
IMPERIAL       SUNNY     36  28  73 S13       29.67S WCI  27
OGALLALA       CLOUDY    35  29  80 E3        29.69R
NORTH PLATTE   CLOUDY    33  28  81 E10       29.73F WCI  25
MCCOOK         SUNNY     33  29  85 SE8       29.73F WCI  26
LEXINGTON      MOSUNNY   32  29  88 SE10      29.78F WCI  24
STAPLETON        N/A     33  29  84 CALM        N/A
GOTHENBURG       N/A     33  29  85 E8          N/A  WCI  26
CALLAWAY         N/A     34  32  92 SE15        N/A  WCI  24
$$

...OBSERVATIONS IN CENTRAL LINCOLN COUNTY AREA...

CITY           SKY/WX    TMP DP  RH WIND       PRES   REMARKS
N.P. AIRPORT   CLOUDY    33  28  81 E10       29.73F WCI  25
N.P. SOUTHEAST   N/A     31  28  87 E3          N/A
N.P. HILLCREST   N/A     34  29  83 E12         N/A  WCI  25
$$

...SOME OBSERVATIONS FROM AROUND THE REGION...

CITY           SKY/WX    TMP DP  RH WIND       PRES   REMARKS
LARAMIE        CLOUDY    22  18  85 SE6       29.61R WCI  14
CHEYENNE       CLOUDY    37  21  52 SW15      29.60S WCI  28
DENVER         MOSUNNY   36  21  54 W8        29.63S WCI  30
AKRON          SUNNY     32  21  64 W18       29.62S WCI  20
SCOTTSBLUFF    SUNNY     29  24  82 SW3       29.65R
RAPID CITY     CLOUDY    20  19  96 CALM      29.66S
BISMARCK       CLOUDY    30  23  75 CALM      29.80S
PIERRE         CLOUDY    26  23  88 SE10      29.80R WCI  16
SIOUX FALLS    CLOUDY    30  27  88 W7        29.87S WCI  23
OMAHA          CLOUDY    33  27  78 N3        29.90S
GRAND ISLAND   CLOUDY    28  28 100 SE7       29.85S FOG     WCI  21
KANSAS CITY    CLOUDY    32  30  92 N6        29.91R FOG     WCI  26
WICHITA        MOSUNNY   39  33  79 S7        29.92R WCI  34
OKLAHOMA CITY  MOSUNNY   43  34  70 S9        29.93R
DALLAS         SUNNY     50  34  54 CALM      29.98F
AMARILLO       SUNNY     51  30  44 W18       29.86R
DODGE CITY     SUNNY     37  31  78 S14       29.80F WCI  28
HAYS           SUNNY     35  30  82 S7        29.84S WCI  29
GOODLAND       SUNNY     36  27  69 S22       29.65F WCI  25
$$




USA.gov is the U.S. government's official web portal to all federal, state and local government web resources and services.